星链-2226 (STARLINK-2226 )

导读 | 豆包AI

STARLINK-2226是美国太空探索技术公司(SpaceX)星链卫星互联网项目的一员,于2021年3月24日发射升空,星链计划旨在构建全球卫星互联网星座,该卫星加入低轨星座后,为全球范围尤其是偏远地区提供互联网接入服务,助推全球网络覆盖的完善。

基本信息
目录编号:
48010
目录名称:
STARLINK-2226
国际标识:
2021-024AK
轨道中心:
EARTH
卫星名称:
星链-2226
卫星全名:
星链-2226 (STARLINK-2226 )
卫星状态:
在轨 (已飞行1816 天)
发射日期:
2021-03-24 UTC
国别 :
美国 (US)
星等 :
--
轨道信息
数据来源 国际轨道数据
星历时间: 2026-03-14T07:17:39+0800
15小时前
查看轨道信息
半长轴: 6853.38km
偏心率: 0.0001148
轨道倾角: 53.159°
近地点辐角 76.200°
升交点赤经 312.539°
平近点角 283.913°
近地点: 474.456km
远地点: 476.03km
周期: 94.106分钟
每日圈数: 15.301908
详细信息
固有亮度:
5
最大亮度:
2.5
卫星平台:
Starlink V1.0
覆盖范围:
全球
运营商:
太空探索技术公司
运营商所在国:
美国
制造商(研发单位):
太空探索技术公司
制造商所在国:
美国
使用方式:
暂无
卫星简介
星链(Starlink)计划是由太空探索技术公司(SpaceX)提出的一个巨型低轨卫星互联网星座项目,计划在2019年至2024年间在太空搭建由约1.2万颗卫星组成的“星链”网络,其中1584颗将部署在地球上空550千米处的近地轨道,并从2020年开始工作。该卫星仍在工作。
2D轨道图
3D轨道图
轨道高度分析图
轨道倾角分析图
轨道综合分析图
查看轨道综合分析图